Location: Bailleul
(50.3375°N, 2.8513°E)
Time: 03:50:46
(UTC+00:00)

Cosmos 1980 - Pass Details

Date: 31 October 2021
Orbit: 839 x 847 km, 71.0° (Epoch: 01 December)

Event Time Altitude Azimuth Distance (km) Brightness Sun altitude
Exits shadow 01:45:57 13° 33° (NNE) 2,239 6.4 -44.8°
Drops below altitude 10° 01:48:04 10° 55° (NE) 2,472 6.7 -44.5°
Sets 01:51:56 0° 81° (E) 3,406 7.5 -44.1°
